カタログに戻る

STARLINK-32542

運用中通信VLEO
NORAD 62177·PAYLOAD·🇺🇸 United States

打ち上げ Nov 30, 2024 から Vandenberg Space Force Base

Loading…

次のパス (今後24時間)

TLE

最新Source: CelesTrak SupGP

元期: Sep 14, 2026, 21:41 UTC

1 62177C 24225Q   26257.90395833  .00019591  00000+0  16425-2 0  2571
2 62177  70.0018  47.4046 0002422 268.9050 202.9013 14.98304775    12

AllMySatでSTARLINK-32542をリアルタイム追跡

Download on the App Store